Preview of NWS' New Version of Forecast
This preview is not operational and should not be used for support decisions.

Terminal Aerodrome Forecast (TAF)

Issued by National Weather Service (NWS)

                            
000
FTUS42 KCAE 222123 AAA
TAFOGB
TAF AMD
KOGB 222123Z 2221/2318 VRB04KT P6SM SKC=